Location: Unspecified
(50.7693°N, 0.0000°E)
Time: 19:21:17
(UTC+00:00)

SR - Pass Details

Date: 29 June 2019
Orbit: 580 x 876 km, 66.7° (Epoch: 21 July)

Event Time Altitude Azimuth Distance (km) Brightness Sun altitude
Rises 00:46:59 0° 160° (SSE) 2,787 - -15.4°
Exits shadow 00:50:08 - 134° (SE) 1,948 ? -15.3°
Reaches altitude 10° 00:50:25 10° 130° (SE) 1,900 ? -15.3°
Maximum altitude 00:52:08 12° 106° (ESE) 1,767 ? -15.2°
Drops below altitude 10° 00:53:52 10° 82° (E) 1,928 ? -15.1°
Sets 00:57:25 0° 53° (NE) 2,877 ? -15.0°
